Theta_e
297 296 295 293 291 289 288 288 287 287 286 286 286 286 286 286 285 285 285 285 285 285 284 283 282 281 281 280 279 279 278 278 277 277 277 277 277 277 278 278 277 276 276
295 294 293 291 290 289 288 288 287 287 286 286 286 286 286 285 285 285 286 285 285 285 284 283 282 281 281 280 279 278 278 277 276 276 276 276 276 276 276 276 276 275 275
293 293 291 291 290 289 288 287 287 286 286 285 286 286 285 285 285 285 285 285 285 284 284 283 282 281 281 280 279 278 277 276 276 275 275 275 275 276 276 275 275 275 275
292 291 291 290 289 289 288 287 286 286 286 285 285 285 285 285 285 285 285 285 285 284 284 283 282 281 280 279 278 278 277 276 276 276 275 275 275 275 275 276 275 275 275
290 290 290 289 289 289 288 287 286 285 285 285 285 284 284 284 285 284 285 284 284 284 283 282 281 281 280 279 278 278 277 277 276 276 275 275 275 276 276 275 275 275 275
289 289 289 288 288 287 287 286 285 285 285 285 284 284 284 284 284 284 284 284 283 283 282 281 281 281 280 278 278 278 277 277 277 276 276 276 276 275 275 275 275 275 274
288 288 288 288 287 287 287 286 285 285 285 284 284 284 284 285 284 284 284 283 283 282 281 281 281 280 279 278 278 276 276 276 277 277 277 276 275 275 275 275 273 272 272
287 287 287 287 287 286 286 286 285 285 285 284 284 283 284 284 284 283 282 283 282 282 281 280 280 279 278 278 277 276 276 276 276 276 276 276 275 275 274 273 272 271 270
287 287 287 287 287 286 285 285 285 285 285 284 284 284 284 284 283 282 282 281 281 281 280 280 279 278 278 277 276 276 276 276 277 277 276 276 274 274 272 271 270 269 268
287 287 288 288 287 286 286 286 286 285 285 284 284 284 284 284 283 282 281 281 280 280 280 279 279 278 277 277 277 277 277 277 277 276 275 274 273 272 270 269 269 268 268
288 289 289 289 287 287 287 286 286 285 285 284 284 284 283 283 282 281 280 281 280 280 279 279 279 278 276 277 278 278 277 277 277 275 274 273 272 270 269 269 268 268 268
292 290 288 288 287 287 287 286 285 285 284 284 284 283 283 283 282 281 280 280 280 279 279 279 278 277 276 277 278 277 278 277 276 274 273 271 269 269 268 268 267 267 267
289 289 288 288 288 287 287 286 284 284 284 283 283 282 283 282 281 280 279 279 279 279 279 278 277 276 276 277 278 278 276 275 274 272 270 269 268 268 267 267 267 267 267
289 289 288 288 287 287 286 286 285 284 283 282 281 280 280 279 280 279 279 278 278 278 278 278 278 277 277 277 276 276 275 274 272 271 269 268 267 266 266 266 265 265 265
291 290 289 288 287 287 286 286 285 285 284 283 282 281 280 279 279 278 277 277 276 276 275 275 275 274 274 274 274 274 273 272 271 270 267 266 266 265 265 265 264 264 263
289 288 287 287 286 286 285 284 283 282 281 280 280 279 278 277 276 276 276 277 277 276 275 275 274 274 274 273 273 273 273 272 270 268 266 266 265 264 263 263 263 263 263
288 287 286 285 284 284 282 281 280 278 277 277 278 278 278 278 277 277 277 278 278 278 278 278 276 273 272 272 272 271 271 270 268 266 265 265 264 263 262 262 262 262 262
285 285 284 284 283 281 280 279 278 277 277 277 277 277 277 276 274 274 275 275 274 274 273 272 270 269 268 269 270 269 268 268 266 265 265 264 263 262 261 261 261 261 261
283 282 282 281 280 279 278 276 276 275 274 274 274 274 274 273 273 271 269 269 268 268 267 266 266 266 266 266 267 267 266 266 265 264 263 263 262 261 261 260 261 261 261
279 279 279 278 277 276 275 274 273 272 271 271 271 270 269 267 267 267 266 266 265 265 265 264 264 264 264 264 264 264 264 264 263 263 263 262 262 261 260 260 260 260 260
276 275 275 275 274 273 272 271 270 270 269 268 267 266 266 266 265 264 263 263 262 262 262 262 262 262 263 263 263 262 262 262 262 262 262 262 261 260 260 260 259 260 260
273 273 272 271 270 270 270 269 268 267 266 265 264 264 264 263 262 262 262 262 261 261 261 261 261 261 261 262 262 261 261 261 261 261 261 261 260 260 260 259 259 260 260
270 270 269 269 269 268 266 266 265 265 264 263 262 262 262 262 262 262 262 261 261 261 261 260 260 260 260 260 260 260 260 260 261 261 260 260 260 260 259 259 259 260 260
268 268 267 266 266 265 264 264 263 262 262 262 262 262 262 262 262 261 261 261 260 260 260 260 260 260 260 260 260 260 260 260 260 260 260 260 260 260 259 259 259 260 260
266 265 265 264 264 263 263 262 262 262 262 262 262 261 261 261 261 261 261 260 260 260 260 260 259 260 260 259 260 260 260 260 260 259 259 259 259 259 259 258 259 260 261
263 263 263 263 262 262 262 262 262 262 262 262 261 261 261 260 260 260 260 260 260 260 259 259 259 259 259 259 259 259 259 259 259 259 259 259 259 260 260 260 260 260 261
Wind_Speed
38 38 38 40 39 37 36 34 33 31 30 28 25 23 22 21 18 16 13 12 9 8 5 3 1 1 3 5 6 7 7 8 11 20 25 29 31 36 38 38 39 38 37
39 39 39 41 39 38 37 35 34 32 30 28 26 24 23 21 19 16 14 12 10 8 6 4 3 3 6 7 8 9 10 9 12 20 25 27 33 35 37 39 38 34 33
39 40 40 41 41 40 38 37 35 33 31 29 27 26 25 23 20 18 15 13 11 8 7 5 5 7 8 9 11 12 12 12 13 18 24 23 30 30 35 30 28 31 29
40 41 42 42 42 40 38 37 36 34 33 31 29 27 25 23 20 18 17 14 12 10 9 8 8 9 10 12 13 13 14 15 15 19 21 25 23 26 22 25 33 30 35
42 43 43 41 40 39 38 38 36 35 33 31 30 28 25 24 21 21 18 17 14 13 11 11 11 12 14 14 13 15 16 16 17 20 20 20 20 22 23 28 27 34 34
42 42 41 40 39 38 38 37 36 35 33 31 31 29 28 26 24 21 19 18 16 15 15 14 14 14 15 15 14 14 14 17 19 19 18 18 23 21 23 29 27 26 31
40 41 41 40 40 39 38 37 37 36 34 33 32 30 29 26 25 23 21 20 19 18 17 17 16 16 16 17 18 17 16 17 17 18 20 21 24 22 27 24 28 28 28
37 39 41 41 40 40 39 38 36 35 35 35 34 32 29 28 25 24 22 21 20 20 20 19 19 19 18 19 20 20 20 18 17 17 19 20 22 24 25 27 27 30 32
35 38 41 40 40 42 40 37 36 36 36 37 35 33 32 29 27 25 22 23 23 24 22 22 21 22 21 19 20 23 24 23 20 17 19 21 22 24 24 25 26 21 22
34 37 39 40 41 43 39 37 37 38 37 36 35 33 31 30 27 26 23 24 26 26 25 26 26 26 22 18 20 22 27 26 22 21 19 24 28 30 23 17 18 19 20
32 33 36 40 43 40 36 36 38 36 35 35 34 33 32 32 29 28 25 25 28 29 30 31 29 25 21 19 20 24 26 23 20 19 24 29 31 29 23 19 15 17 20
29 34 37 38 38 37 36 34 34 33 34 33 32 32 33 33 31 29 28 26 27 29 32 31 29 23 18 19 21 23 23 18 20 25 29 30 28 26 23 22 25 24 23
29 31 33 33 33 32 32 32 30 30 31 32 31 33 35 34 31 28 27 27 24 27 31 31 27 21 20 21 22 20 15 20 24 25 27 27 24 23 23 26 26 26 28
27 28 28 27 29 29 29 29 29 29 31 31 32 33 32 28 25 24 27 27 26 25 25 24 25 21 23 23 24 24 24 23 22 24 24 23 22 22 25 24 23 28 27
23 23 24 25 26 26 27 27 28 28 29 30 32 29 25 25 23 19 20 22 24 24 24 28 30 32 33 31 30 28 25 24 22 23 21 19 20 22 23 22 24 25 19
19 20 22 23 24 24 24 21 20 20 20 19 17 17 15 15 12 10 12 15 16 16 20 27 30 30 29 27 26 30 28 24 22 20 19 17 19 21 21 23 23 21 21
17 19 20 21 21 21 21 21 20 11 8 8 9 10 10 9 7 10 12 14 17 19 24 19 19 20 23 24 26 27 25 21 17 17 17 16 17 19 19 22 22 20 22
14 15 17 19 19 19 19 17 16 16 16 14 10 10 10 8 4 7 10 13 17 17 18 19 19 19 19 20 22 21 20 18 16 16 17 17 17 16 18 20 21 20 20
12 12 13 13 13 12 12 11 10 10 10 10 11 11 12 13 14 10 7 13 16 19 19 20 21 22 24 24 21 19 18 17 17 16 17 16 16 15 16 18 20 20 21
9 9 9 10 11 10 10 10 10 9 8 6 5 6 7 8 8 9 10 12 14 17 18 19 19 19 19 17 17 18 18 17 17 17 17 16 15 15 16 17 19 19 22
8 10 9 10 10 10 10 9 8 6 5 5 5 6 4 8 7 10 12 13 14 16 18 19 21 21 17 13 14 16 16 17 17 18 17 16 15 17 15 16 18 20 20
10 11 11 12 12 10 8 7 6 7 6 6 6 6 4 9 8 9 10 11 12 13 14 15 17 17 17 19 20 19 19 19 19 18 16 16 16 16 16 17 18 19 20
10 11 10 9 8 9 9 8 8 7 7 6 5 5 6 7 8 10 11 12 12 13 12 12 14 15 14 16 17 18 19 19 18 17 17 17 18 18 17 18 18 20 20
7 7 8 8 8 7 7 7 7 6 5 5 5 6 7 8 10 11 12 13 14 14 13 13 14 15 16 16 17 17 17 17 17 17 18 19 20 19 19 19 20 20 20
6 7 6 6 5 5 5 5 5 5 5 6 7 9 10 11 13 14 14 15 16 16 15 15 15 16 16 16 16 17 17 17 18 18 18 19 20 20 20 20 20 20 20
4 4 5 5 5 5 5 5 6 7 8 8 10 12 14 15 16 16 16 16 18 18 18 17 17 17 17 17 17 17 18 17 17 15 14 15 17 17 17 19 19 19 18
Wind_Direction
195 195 193 190 187 184 183 181 178 174 173 172 172 169 168 168 164 160 155 151 151 148 150 146 154 265 284 289 290 289 281 271 270 292 304 312 321 327 331 334 334 336 334
197 196 192 188 187 187 187 186 182 180 179 179 178 177 178 176 172 172 173 171 175 174 178 188 220 266 284 287 289 290 286 281 284 294 303 312 318 328 330 331 333 330 325
197 194 191 190 189 190 190 188 187 186 184 184 185 185 185 184 182 183 190 187 192 197 205 224 249 268 284 290 293 291 287 287 284 287 297 307 316 325 327 324 322 321 317
195 194 193 193 192 192 192 191 191 191 189 190 192 193 193 191 191 195 198 203 208 215 227 243 258 273 283 290 290 287 290 294 295 293 293 301 309 319 316 319 320 320 316
196 194 196 195 197 196 193 194 194 195 196 197 196 198 198 199 201 206 209 215 220 228 238 250 261 272 284 287 283 288 290 289 289 291 290 299 306 317 320 318 314 312 312
196 197 198 197 199 201 194 196 197 199 200 201 203 204 203 206 211 217 222 226 230 236 245 252 260 272 280 278 270 265 267 277 283 286 295 296 303 310 313 311 310 321 314
195 198 200 199 200 203 199 199 200 203 203 206 208 210 212 216 218 225 232 235 239 245 250 255 263 270 275 279 279 273 269 265 268 281 289 291 295 306 309 313 315 308 303
192 197 201 201 201 206 205 203 204 206 209 211 213 215 218 222 225 230 234 243 246 250 254 258 265 271 272 276 279 280 279 278 279 280 285 289 297 306 311 308 304 301 304
191 198 202 204 205 209 207 206 208 211 214 219 220 221 223 227 229 233 234 244 251 256 259 261 264 268 272 269 271 275 279 279 287 279 277 284 296 302 305 304 306 312 310
194 200 206 208 213 212 211 210 214 219 222 222 225 229 232 237 235 240 239 245 252 258 261 264 264 266 268 265 265 271 275 283 291 286 285 296 306 310 309 300 302 299 307
202 209 212 214 215 217 215 217 221 220 224 227 231 236 239 242 242 242 239 244 252 258 261 264 265 268 262 259 259 265 272 286 279 278 297 303 306 307 310 314 301 297 294
209 210 212 214 214 217 217 220 221 223 225 230 234 240 243 245 246 243 241 238 252 257 262 267 272 276 265 262 264 268 271 269 277 287 299 303 305 308 312 310 312 310 306
201 206 208 210 213 216 215 219 217 220 225 231 234 241 247 247 246 247 247 245 245 250 264 273 276 271 266 263 263 260 255 267 281 291 298 297 301 305 305 307 314 317 317
197 201 204 205 208 213 216 220 220 220 224 230 235 240 247 254 256 253 252 251 247 250 257 258 260 263 265 269 267 258 259 264 277 287 288 292 295 299 306 315 311 319 316
196 198 200 205 207 209 215 220 223 230 234 236 242 248 253 259 266 269 263 260 258 256 258 262 264 264 265 266 262 263 259 264 274 283 282 283 289 299 305 311 313 317 304
195 199 203 205 207 212 216 218 226 235 239 244 253 257 261 263 269 261 253 254 260 263 256 256 260 263 263 261 257 262 266 263 273 278 274 276 288 298 304 308 312 314 303
209 207 206 206 209 211 213 215 214 214 222 224 226 232 257 280 265 259 264 267 266 262 256 263 260 256 258 260 262 263 261 267 276 270 269 276 287 294 302 305 308 308 305
216 220 218 216 217 217 219 221 220 217 213 207 204 210 213 222 268 290 293 290 283 275 281 294 303 304 302 286 277 268 273 277 272 268 268 277 284 292 298 299 304 305 303
216 217 217 216 214 214 210 207 209 206 205 207 211 229 246 259 266 276 296 278 287 291 296 300 302 304 300 293 291 285 284 278 272 268 272 280 284 289 291 296 300 303 305
194 194 191 187 179 177 177 177 174 178 183 198 229 258 274 289 291 284 285 290 291 295 301 303 305 305 302 298 293 292 284 274 270 270 275 279 281 284 287 296 297 299 306
151 150 153 151 153 155 160 162 166 180 200 213 224 247 295 283 283 293 297 299 301 302 302 301 302 301 306 298 303 300 289 282 279 279 280 278 281 283 286 294 292 298 304
145 147 148 147 148 149 154 164 173 187 198 212 229 240 258 265 283 296 304 307 307 303 300 300 295 296 290 291 293 290 286 283 283 282 280 278 277 278 286 293 294 298 303
143 145 147 149 154 158 162 171 184 196 203 211 226 252 274 291 302 306 308 308 306 303 301 300 300 299 292 290 288 286 284 284 285 282 279 278 276 278 283 288 294 298 301
142 143 146 150 158 165 173 179 190 201 217 245 266 281 294 300 302 302 303 305 302 299 298 299 299 299 299 297 295 291 286 282 278 278 277 275 277 279 282 285 290 291 295
138 144 149 158 172 184 197 208 224 242 255 274 289 296 299 299 298 298 300 299 296 295 295 294 295 296 297 297 293 291 288 282 279 277 273 273 275 278 280 282 283 289 293
147 165 178 189 203 223 240 257 270 280 289 294 293 292 292 292 292 294 296 293 291 290 290 291 294 295 295 292 291 289 286 283 279 276 275 275 275 276 278 279 283 286 286